Printer-friendly version

IAU Minor Planet Center

Minor Planet Center

MPEC 2006-M23 : 2006 MS6

The following Minor Planet Electronic Circular may be linked-to from your own Web pages, but must not otherwise be redistributed electronically.


Read MPEC 2006-M22 Read MPEC 2006-M24


M.P.E.C. 2006-M23                                Issued 2006 June 22, 12:44 UT

     The Minor Planet Electronic Circulars contain information on unusual
         minor planets and routine data on comets.  They are published
   on behalf of Commission 20 of the International Astronomical Union by the
          Minor Planet Center, Smithsonian Astrophysical Observatory,
                          Cambridge, MA 02138, U.S.A.

                  Supported in part by the Brinson Foundation
                  Supported in part by the TABASGO Foundation
             Prepared using the Tamkin Foundation Computer Network

                              MPC@CFA.HARVARD.EDU
          URL http://cfa-www.harvard.edu/iau/mpc.html  ISSN 1523-6714

                                   2006 MS6

Observations:
     K06M06S* C2006 06 20.42354 23 05 33.10 -02 23 01.0          20.0 V EM023703
     K06M06S  C2006 06 20.42838 23 05 34.87 -02 23 12.4          19.5 V EM023703
     K06M06S  C2006 06 20.43321 23 05 36.56 -02 23 24.6          19.8 V EM023703
     K06M06S  C2006 06 20.43807 23 05 38.04 -02 23 34.7          19.2 V EM023703
     K06M06S  C2006 06 20.44771 23 05 41.60 -02 23 59.6          18.9 V EM023703
     K06M06S  C2006 06 20.44859 23 05 42.00 -02 24 01.0          18.9 V EM023703
     K06M06S  C2006 06 20.44946 23 05 42.10 -02 24 03.7          19.1 V EM023703
     K06M06S  C2006 06 20.45032 23 05 42.54 -02 24 05.6          19.4 V EM023703
     K06M06S  C2006 06 21.02839 23 09 09.96 -02 48 01.2          19   R EM023461
     K06M06S  C2006 06 21.03127 23 09 10.92 -02 48 07.8                 EM023461
     K06M06S  C2006 06 21.38259 23 11 17.07 -03 02 37.6          19.3 R EM023854
     K06M06S  C2006 06 21.39026 23 11 19.81 -03 02 55.3          19.4 R EM023854
     K06M06S  C2006 06 21.39792 23 11 22.41 -03 03 14.7          19.3 R EM023854
     K06M06S  C2006 06 21.42704 23 11 32.60 -03 04 28.5                 EM023703
     K06M06S  C2006 06 21.43728 23 11 36.38 -03 04 55.4                 EM023703
     K06M06S  C2006 06 21.44755 23 11 39.80 -03 05 21.5                 EM023703
     K06M06S  C2006 06 21.45780 23 11 43.51 -03 05 46.2          18.8 V EM023703
     K06M06S BC2006 06 22.06229 23 15 20.03 -03 31 06.4                 EM023J95
     K06M06S BC2006 06 22.06744 23 15 21.97 -03 31 17.8                 EM023J95
     K06M06S BC2006 06 22.07279 23 15 23.80 -03 31 31.5          18.8 R EM023J95
     K06M06S 5C2006 06 22.47928 23 17 48.94 -03 48 28.6          19.2 R EM023673
     K06M06S 5C2006 06 22.48079 23 17 49.46 -03 48 32.4                 EM023673
     K06M06S 5C2006 06 22.48322 23 17 50.29 -03 48 38.5                 EM023673
     K06M06S 5C2006 06 22.48472 23 17 50.81 -03 48 42.4                 EM023673

Observer details:
461 Szeged University, Piszkesteto Stn. (Konkoly).  Observer K. Sarneczky.
    0.60-m Schmidt + CCD.
673 Table Mountain Observatory, Wrightwood.  Observer J. Young.  0.61-m f/16
    Cassegrain + CCD.
703 Catalina Sky Survey.  Observers R. E. Hill, A. R. Gibbs.  Measurers
    E. C. Beshore, E. J. Christensen, G. J. Garradd, A. R. Gibbs, A. D. Grauer,
    R. E. Hill, R. A. Kowalski, S. M. Larson, R. H. McNaught.  0.68-m Schmidt
    + CCD.
854 Sabino Canyon Observatory, Tucson.  Observer J. E. McGaha.  0.36-m f/10.0
    Schmidt-Cassegrain + CCD.
J95 Great Shefford.  Observer P. Birtwhistle.  0.40-m f/6.0 Schmidt-Cassegrain
    + CCD.

Orbital elements:
2006 MS6                                                 Earth MOID = 0.1186 AU
Epoch 2006 June 14.0 TT = JDT 2453900.5                 MPC
M 356.03183              (2000.0)            P               Q
n   0.24222746     Peri.  187.48256     +0.42710730     +0.83656974
a   2.5487103      Node   108.33235     -0.80973934     +0.52274385
e   0.5556456      Incl.   21.19011     -0.40236992     -0.16398149
P   4.07           H   19.3           G   0.15
From 23 observations 2006 June 20-22.

Ephemeris:
2006 MS6                 a,e,i = 2.55, 0.56, 21                  q = 1.1325
Date    TT    R. A. (2000) Decl.     Delta      r     Elong.  Phase     V
2006 06 14    22 27.38   +01 47.1    0.354    1.150   103.3    59.3    19.5
2006 06 24    23 26.84   -04 52.4    0.338    1.135   101.8    61.2    19.4
2006 07 04    00 24.00   -11 54.7    0.345    1.133   100.8    61.8    19.5
2006 07 14    01 14.00   -18 11.7    0.369    1.144   100.7    60.8    19.6
2006 07 24    01 54.42   -23 20.2    0.405    1.167   101.7    58.4    19.8
2006 08 03    02 24.86   -27 30.4    0.445    1.202   103.8    55.1    19.9
2006 08 13    02 45.95   -30 58.1    0.488    1.245   106.8    51.2    20.1
2006 08 23    02 58.36   -33 55.6    0.530    1.297   110.6    46.9    20.3
2006 09 02    03 02.54   -36 25.0    0.573    1.355   115.0    42.4    20.4
2006 09 12    02 59.16   -38 19.5    0.616    1.417   119.8    38.0    20.5
2006 09 22    02 49.32   -39 28.1    0.664    1.484   124.5    33.9    20.7
2006 10 02    02 34.93   -39 38.1    0.718    1.553   128.5    30.3    20.8
2006 10 12    02 18.73   -38 43.1    0.782    1.623   131.2    27.6    21.0
2006 10 22    02 03.41   -36 47.3    0.858    1.695   132.1    25.8    21.3
2006 11 01    01 50.99   -34 02.6    0.949    1.767   131.0    25.1    21.6
2006 11 11    01 42.46   -30 46.0    1.054    1.839   128.1    25.1    21.9

Timothy B. Spahr             (C) Copyright 2006 MPC           M.P.E.C. 2006-M23

Read MPEC 2006-M22 Read MPEC 2006-M24


Our Web policy. Index to the CBAT/MPC/ICQ pages.


Valid HTML 4.01!